Date/Time,Expocode,Longitude,Latitude,Depth,version,QC_Flag,P_sal,Temp,Temperature of Equilibration,Atmospheric Pressure,Equilibrator Pressure (absolute),WOA_SSS,NCEP_SLP,ETOPO2_depth,dist_to_land,GVCO2,CO2 Mole Fraction,xCO2water_SST_dry,pCO2 In Water - Equilibrator Temperature,pCO2,fCO2water_equ_wet,fCO2water_SST_wet,fCO2,fCO2rec_src,fCO2  QC Flag,pCO2  QC Flag,P_sal  QC Flag,Temp  QC Flag
2020-01-18T03:22:44.000Z,26NA20200116,-19.708,58.303,,2021.0N,2,,9.631,9.94,1015.33,1014.2,35.275,1019.8,1720.0,579.0,,426.2,,,416.1,,414.5,414.488,4,2,9,9,9
2020-01-18T03:24:16.000Z,26NA20200116,-19.701,58.303,,2021.0N,2,,9.626,9.94,1015.33,1014.1,35.275,1019.8,1713.0,579.0,,426.7,,,416.5,,414.9,414.887,4,2,9,9,9
2020-01-18T03:25:49.000Z,26NA20200116,-19.692,58.303,,2021.0N,2,,9.609,9.93,1015.57,1013.6,35.275,1019.8,1704.0,579.0,,426.8,,,416.2,,414.6,414.588,4,2,9,9,9
2020-01-18T03:27:22.000Z,26NA20200116,-19.692,58.303,,2021.0N,2,,9.606,9.93,1015.27,1014.1,35.275,1019.8,1704.0,579.0,,427.1,,,416.6,,415.0,414.986,4,2,9,9,9
2020-01-18T03:28:55.000Z,26NA20200116,-19.66,58.302,,2021.0N,2,,9.613,9.91,1015.9,1013.5,35.275,1019.8,1671.0,579.0,,427.1,,,416.9,,415.3,415.286,4,2,9,9,9
2020-01-18T03:30:28.000Z,26NA20200116,-19.648,58.302,,2021.0N,2,,9.626,9.92,1015.33,1013.9,35.275,1019.8,1659.0,579.0,,426.8,,,416.8,,415.2,415.186,4,2,9,9,9
2020-01-18T03:32:00.000Z,26NA20200116,-19.648,58.302,,2021.0N,2,,9.629,9.93,1015.58,1013.2,35.275,1019.8,1659.0,579.0,,426.9,,,416.5,,414.8,414.888,4,2,9,9,9
2020-01-18T03:33:33.000Z,26NA20200116,-19.627,58.3,,2021.0N,2,,9.633,9.94,1015.3,1013.5,35.275,1019.8,1635.0,579.0,,426.8,,,416.5,,414.8,414.888,4,2,9,9,9
2020-01-18T03:35:06.000Z,26NA20200116,-19.621,58.301,,2021.0N,2,,9.641,9.94,1015.53,1013.7,35.275,1019.8,1628.0,579.0,,426.7,,,416.6,,415.0,414.987,4,2,9,9,9
2020-01-18T03:36:39.000Z,26NA20200116,-19.603,58.3,,2021.0N,2,,9.64,9.95,1015.52,1013.2,35.275,1019.8,1607.0,579.0,,426.9,,,416.3,,414.7,414.689,4,2,9,9,9
2020-01-18T03:38:12.000Z,26NA20200116,-19.591,58.3,,2021.0N,2,,9.646,9.95,1015.12,1013.3,35.275,1019.8,1593.0,579.0,,426.8,,,416.4,,414.8,414.789,4,2,9,9,9
2020-01-18T03:39:45.000Z,26NA20200116,-19.565,58.299,,2021.0N,2,,9.651,9.96,1015.58,1013.1,35.275,1019.8,1567.0,579.0,,426.6,,,416.0,,414.4,414.391,4,2,9,9,9
2020-01-18T03:41:17.000Z,26NA20200116,-19.565,58.299,,2021.0N,2,,9.65,9.96,1015.45,1013.5,35.275,1019.8,1567.0,579.0,,426.8,,,416.3,,414.7,414.689,4,2,9,9,9
2020-01-18T03:42:50.000Z,26NA20200116,-19.557,58.298,,2021.0N,2,,9.648,9.97,1015.56,1013.1,35.275,1019.8,1560.0,579.0,,426.8,,,416.0,,414.4,414.391,4,2,9,9,9
2020-01-18T03:44:23.000Z,26NA20200116,-19.541,58.298,,2021.0N,2,,9.646,9.96,1015.48,1012.7,35.275,1019.8,1548.0,579.0,,427.2,,,416.3,,414.7,414.69,4,2,9,9,9
2020-01-18T03:45:56.000Z,26NA20200116,-19.519,58.297,,2021.0N,2,,9.644,9.99,1015.51,1012.9,35.275,1019.8,1532.0,579.0,,427.0,,,415.7,,414.1,414.092,4,2,9,9,9
2020-01-18T03:47:50.000Z,26NA20200116,-19.515,58.297,,2021.0N,2,,9.659,9.96,1015.5,1012.8,35.275,1019.8,1529.0,579.0,,427.1,,,416.5,,414.9,414.889,4,2,9,9,9
2020-01-18T03:49:23.000Z,26NA20200116,-19.492,58.296,,2021.0N,2,,9.659,9.98,1015.44,1013.1,35.275,1019.8,1512.0,579.0,,426.9,,,416.1,,414.5,414.49,4,2,9,9,9
2020-01-18T03:50:55.000Z,26NA20200116,-19.492,58.296,,2021.0N,2,,9.664,10.0,1015.35,1012.9,35.275,1019.8,1512.0,579.0,,426.8,,,415.7,,414.1,414.092,4,2,9,9,9
2020-01-18T03:52:28.000Z,26NA20200116,-19.471,58.296,,2021.0N,2,,9.663,9.99,1015.57,1012.9,35.275,1019.8,1493.0,579.0,,427.0,,,415.9,,414.3,414.292,4,2,9,9,9
2020-01-18T03:54:03.000Z,26NA20200116,-19.464,58.295,,2021.0N,2,,9.668,10.01,1015.22,1013.2,35.275,1019.8,1486.0,579.0,,426.9,,,415.7,,414.1,414.092,4,2,9,9,9
2020-01-18T03:55:35.000Z,26NA20200116,-19.456,58.295,,2021.0N,2,,9.672,10.02,1015.48,1013.1,35.275,1019.8,1479.0,579.0,,427.1,,,415.8,,414.2,414.192,4,2,9,9,9
2020-01-18T03:57:08.000Z,26NA20200116,-19.44,58.294,,2021.0N,2,,9.67,10.0,1015.52,1013.5,35.275,1019.8,1460.0,579.0,,427.4,,,416.6,,414.9,414.988,4,2,9,9,9
2020-01-18T03:58:41.000Z,26NA20200116,-19.424,58.294,,2021.0N,2,,9.665,9.99,1015.51,1012.5,35.275,1019.8,1440.0,580.0,,427.2,,,416.1,,414.4,414.492,4,2,9,9,9
2020-01-18T04:00:14.000Z,26NA20200116,-19.41,58.294,,2021.0N,2,,9.667,9.99,1015.4,1012.7,35.275,1019.8,1420.0,580.0,,427.6,,,416.5,,414.9,414.89,4,2,9,9,9
2020-01-18T04:01:47.000Z,26NA20200116,-19.394,58.293,,2021.0N,2,,9.661,10.0,1015.56,1012.7,35.275,1019.8,1393.0,580.0,,427.4,,,416.1,,414.5,414.491,4,2,9,9,9
2020-01-18T04:03:19.000Z,26NA20200116,-19.387,58.292,,2021.0N,2,,9.656,10.01,1015.46,1013.3,35.275,1019.8,1382.0,580.0,,427.5,,,416.2,,414.6,414.59,4,2,9,9,9
2020-01-18T04:04:52.000Z,26NA20200116,-19.378,58.292,,2021.0N,2,,9.646,10.0,1015.43,1012.0,35.275,1019.8,1366.0,580.0,,427.4,,,415.6,,414.0,413.994,4,2,9,9,9
2020-01-18T04:06:25.000Z,26NA20200116,-19.368,58.292,,2021.0N,2,,9.647,9.97,1015.38,1012.7,35.275,1019.8,1346.0,580.0,,427.3,,,416.3,,414.7,414.69,4,2,9,9,9
2020-01-18T04:07:58.000Z,26NA20200116,-19.334,58.29,,2021.0N,2,,9.651,9.96,1015.65,1012.3,35.275,1019.8,1281.0,580.0,,427.4,,,416.5,,414.9,414.89,4,2,9,9,9
2020-01-18T04:09:31.000Z,26NA20200116,-19.334,58.29,,2021.0N,2,,9.645,10.03,1015.56,1012.5,35.275,1019.8,1281.0,580.0,,427.3,,,415.1,,413.5,413.495,4,2,9,9,9
2020-01-18T04:11:04.000Z,26NA20200116,-19.326,58.29,,2021.0N,2,,9.645,9.98,1015.7,1012.5,35.275,1019.8,1264.0,580.0,,427.6,,,416.3,,414.7,414.69,4,2,9,9,9
2020-01-18T04:12:37.000Z,26NA20200116,-19.315,58.29,,2021.0N,2,,9.645,9.96,1015.66,1012.5,35.275,1019.8,1243.0,580.0,,427.4,,,416.5,,414.9,414.89,4,2,9,9,9
2020-01-18T04:14:09.000Z,26NA20200116,-19.291,58.288,,2021.0N,2,,9.645,9.97,1016.01,1011.8,35.275,1019.8,1206.0,580.0,,427.5,,,416.1,,414.5,414.492,4,2,9,9,9
2020-01-18T04:15:42.000Z,26NA20200116,-19.291,58.288,,2021.0N,2,,9.637,9.95,1015.82,1012.0,35.275,1019.8,1206.0,580.0,,427.3,,,416.1,,414.5,414.492,4,2,9,9,9
2020-01-18T04:17:15.000Z,26NA20200116,-19.263,58.286,,2021.0N,2,,9.635,9.95,1015.47,1012.3,35.275,1019.8,1158.0,580.0,,427.3,,,416.3,,414.7,414.69,4,2,9,9,9
2020-01-18T04:18:48.000Z,26NA20200116,-19.263,58.286,,2021.0N,2,,9.635,9.96,1015.35,1012.4,35.275,1019.8,1158.0,580.0,,427.2,,,416.0,,414.4,414.391,4,2,9,9,9
2020-01-18T04:20:21.000Z,26NA20200116,-19.243,58.285,,2021.0N,2,,9.633,9.96,1015.61,1012.4,35.275,1019.8,1125.0,580.0,,427.1,,,415.9,,414.3,414.292,4,2,9,9,9
2020-01-18T04:21:53.000Z,26NA20200116,-19.239,58.285,,2021.0N,2,,9.63,9.96,1015.69,1011.9,35.275,1019.8,1121.0,581.0,,427.5,,,416.1,,414.5,414.492,4,2,9,9,9
2020-01-18T04:23:26.000Z,26NA20200116,-19.228,58.284,,2021.0N,2,,9.624,9.96,1015.73,1012.1,35.275,1019.8,1106.0,581.0,,427.7,,,416.2,,414.6,414.591,4,2,9,9,9
2020-01-18T04:24:59.000Z,26NA20200116,-19.216,58.284,,2021.0N,2,,9.627,9.95,1015.68,1011.5,35.275,1019.8,1093.0,581.0,,427.8,,,416.2,,414.6,414.592,4,2,9,9,9
2020-01-18T04:26:32.000Z,26NA20200116,-19.2,58.283,,2021.0N,2,,9.63,9.95,1015.92,1011.1,35.275,1019.8,1079.0,581.0,,428.1,,,416.4,,414.8,414.792,4,2,9,9,9
2020-01-18T04:28:05.000Z,26NA20200116,-19.192,58.282,,2021.0N,2,,9.624,9.95,1015.53,1012.7,35.275,1019.8,1073.0,581.0,,428.0,,,416.9,,415.3,415.287,4,2,9,9,9
2020-01-18T04:29:38.000Z,26NA20200116,-19.18,58.282,,2021.0N,2,,9.635,9.95,1016.05,1012.1,35.275,1019.8,1064.0,581.0,,428.0,,,416.8,,415.2,415.189,4,2,9,9,9
2020-01-18T04:31:10.000Z,26NA20200116,-19.16,58.28,,2021.0N,2,,9.641,9.96,1016.01,1011.0,35.275,1019.8,1055.0,581.0,,428.2,,,416.5,,414.9,414.892,4,2,9,9,9
2020-01-18T04:32:43.000Z,26NA20200116,-19.154,58.28,,2021.0N,2,,9.634,9.97,1015.95,1011.2,35.275,1019.8,1052.0,581.0,,427.9,,,416.0,,414.4,414.393,4,2,9,9,9
2020-01-18T04:34:16.000Z,26NA20200116,-19.154,58.28,,2021.0N,2,,9.635,9.97,1016.08,1011.5,35.275,1019.8,1052.0,581.0,,427.6,,,415.8,,414.2,414.194,4,2,9,9,9
2020-01-18T04:35:49.000Z,26NA20200116,-19.118,58.278,,2021.0N,2,,9.639,9.97,1015.63,1012.3,35.275,1019.8,1051.0,581.0,,427.8,,,416.5,,414.9,414.89,4,2,9,9,9
2020-01-18T04:37:22.000Z,26NA20200116,-19.116,58.278,,2021.0N,2,,9.633,9.96,1016.02,1011.1,35.275,1019.8,1051.0,581.0,,427.7,,,416.0,,414.3,414.393,4,2,9,9,9
2020-01-18T04:38:55.000Z,26NA20200116,-19.102,58.278,,2021.0N,2,,9.631,9.95,1016.12,1011.6,35.275,1019.8,1054.0,581.0,,428.2,,,416.8,,415.2,415.19,4,2,9,9,9
2020-01-18T04:40:27.000Z,26NA20200116,-19.09,58.277,,2021.0N,2,,9.624,9.95,1015.91,1011.9,35.275,1019.8,1057.0,581.0,,428.5,,,417.0,,415.4,415.388,4,2,9,9,9
2020-01-18T04:42:00.000Z,26NA20200116,-19.09,58.277,,2021.0N,2,,9.633,9.95,1016.32,1011.1,35.275,1019.8,1057.0,581.0,,428.5,,,416.9,,415.3,415.29,4,2,9,9,9
2020-01-18T04:43:33.000Z,26NA20200116,-19.063,58.276,,2021.0N,2,,9.628,9.95,1016.11,1011.8,35.275,1019.8,1047.0,582.0,,428.8,,,417.4,,415.8,415.787,4,2,9,9,9
2020-01-18T04:45:06.000Z,26NA20200116,-19.051,58.275,,2021.0N,2,,9.627,9.95,1016.01,1011.0,35.275,1019.8,1040.0,582.0,,429.2,,,417.4,,415.8,415.788,4,2,9,9,9
2020-01-18T04:46:39.000Z,26NA20200116,-19.041,58.275,,2021.0N,2,,9.634,9.95,1015.97,1011.6,35.275,1019.8,1038.0,582.0,,429.0,,,417.6,,415.9,415.987,4,2,9,9,9
2020-01-18T04:48:33.000Z,26NA20200116,-19.026,58.274,,2021.0N,2,,9.645,9.96,1016.13,1011.2,35.275,1019.8,1034.0,582.0,,429.2,,,417.7,,416.1,416.087,4,2,9,9,9
2020-01-18T04:50:06.000Z,26NA20200116,-19.013,58.274,,2021.0N,2,,9.656,9.97,1016.42,1011.1,35.275,1019.8,1032.0,582.0,,429.2,,,417.6,,416.0,415.988,4,2,9,9,9
2020-01-18T04:51:38.000Z,26NA20200116,-18.993,58.272,,2021.0N,2,,9.656,9.98,1015.99,1011.8,35.297,1019.8,1031.0,582.0,,429.6,,,418.1,,416.5,416.485,4,2,9,9,9
2020-01-18T04:53:11.000Z,26NA20200116,-18.993,58.272,,2021.0N,2,,9.66,9.98,1016.04,1011.7,35.297,1019.8,1031.0,582.0,,429.5,,,418.1,,416.4,416.485,4,2,9,9,9
2020-01-18T04:54:44.000Z,26NA20200116,-18.97,58.272,,2021.0N,2,,9.659,9.98,1016.11,1012.0,35.297,1019.8,1027.0,582.0,,429.5,,,418.2,,416.6,416.584,4,2,9,9,9
2020-01-18T04:56:17.000Z,26NA20200116,-18.962,58.271,,2021.0N,2,,9.659,9.98,1015.93,1011.7,35.297,1019.8,1024.0,582.0,,429.8,,,418.4,,416.7,416.784,4,2,9,9,9
2020-01-18T04:57:50.000Z,26NA20200116,-18.953,58.271,,2021.0N,2,,9.65,9.98,1016.13,1011.3,35.297,1019.8,1020.0,582.0,,429.8,,,418.0,,416.4,416.386,4,2,9,9,9
2020-01-18T04:59:23.000Z,26NA20200116,-18.937,58.27,,2021.0N,2,,9.644,9.98,1016.26,1011.3,35.297,1019.8,1008.0,582.0,,429.9,,,418.0,,416.4,416.386,4,2,9,9,9
2020-01-18T05:00:55.000Z,26NA20200116,-18.926,58.27,,2021.0N,2,,9.63,9.97,1016.34,1010.4,35.297,1019.8,999.0,582.0,,429.9,,,417.5,,415.9,415.889,4,2,9,9,9
2020-01-18T05:02:28.000Z,26NA20200116,-18.901,58.268,,2021.0N,2,,9.621,9.95,1016.55,1011.2,35.297,1019.8,979.0,582.0,,430.2,,,418.4,,416.8,416.784,4,2,9,9,9
2020-01-18T05:04:01.000Z,26NA20200116,-18.901,58.268,,2021.0N,2,,9.607,9.95,1016.42,1010.9,35.297,1019.8,979.0,582.0,,430.2,,,418.0,,416.4,416.386,4,2,9,9,9
2020-01-18T05:05:34.000Z,26NA20200116,-18.889,58.268,,2021.0N,2,,9.601,9.94,1016.43,1011.0,35.297,1019.8,971.0,582.0,,430.1,,,418.0,,416.4,416.385,4,2,9,9,9
2020-01-18T05:07:07.000Z,26NA20200116,-18.874,58.267,,2021.0N,2,,9.587,9.93,1016.51,1011.2,35.297,1019.8,959.0,583.0,,430.5,,,418.4,,416.8,416.783,4,2,9,9,9
2020-01-18T05:08:40.000Z,26NA20200116,-18.865,58.266,,2021.0N,2,,9.573,9.91,1016.43,1011.3,35.297,1019.8,950.0,583.0,,430.3,,,418.4,,416.8,416.783,4,2,9,9,9
2020-01-18T05:10:13.000Z,26NA20200116,-18.848,58.266,,2021.0N,2,,9.564,9.9,1016.55,1010.9,35.297,1019.8,936.0,583.0,,430.5,,,418.4,,416.8,416.783,4,2,9,9,9
2020-01-18T05:11:45.000Z,26NA20200116,-18.834,58.265,,2021.0N,2,,9.577,9.9,1016.48,1011.0,35.297,1019.8,926.0,583.0,,430.7,,,418.9,,417.3,417.281,4,2,9,9,9
2020-01-18T05:13:18.000Z,26NA20200116,-18.822,58.265,,2021.0N,2,,9.582,9.91,1016.47,1010.8,35.297,1019.8,918.0,583.0,,430.6,,,418.6,,417.0,416.983,4,2,9,9,9
2020-01-18T05:14:51.000Z,26NA20200116,-18.817,58.265,,2021.0N,2,,9.603,9.92,1016.46,1011.4,35.297,1019.8,916.0,583.0,,430.9,,,419.4,,417.8,417.779,4,2,9,9,9
2020-01-18T05:16:24.000Z,26NA20200116,-18.801,58.264,,2021.0N,2,,9.6,9.93,1016.53,1010.8,35.297,1019.8,905.0,583.0,,430.8,,,418.8,,417.1,417.182,4,2,9,9,9
2020-01-18T05:17:57.000Z,26NA20200116,-18.788,58.264,,2021.0N,2,,9.594,9.93,1016.42,1011.1,35.297,1019.8,896.0,583.0,,430.9,,,418.8,,417.2,417.182,4,2,9,9,9
2020-01-18T05:19:29.000Z,26NA20200116,-18.773,58.263,,2021.0N,2,,9.59,9.93,1016.49,1011.3,35.297,1019.8,892.0,583.0,,431.0,,,419.0,,417.4,417.381,4,2,9,9,9
2020-01-18T05:21:04.000Z,26NA20200116,-18.761,58.262,,2021.0N,2,,9.591,9.92,1016.46,1011.0,35.297,1019.8,891.0,583.0,,431.1,,,419.1,,417.5,417.481,4,2,9,9,9
2020-01-18T05:22:36.000Z,26NA20200116,-18.747,58.262,,2021.0N,2,,9.59,9.93,1016.72,1011.4,35.297,1021.3,888.0,583.0,,431.2,,,419.2,,417.6,417.58,4,2,9,9,9
2020-01-18T05:24:09.000Z,26NA20200116,-18.735,58.262,,2021.0N,2,,9.587,9.92,1016.61,1010.7,35.297,1021.3,875.0,583.0,,431.4,,,419.2,,417.6,417.581,4,2,9,9,9
2020-01-18T05:25:42.000Z,26NA20200116,-18.727,58.261,,2021.0N,2,,9.584,9.92,1016.52,1010.9,35.297,1021.3,866.0,583.0,,431.4,,,419.3,,417.6,417.68,4,2,9,9,9
2020-01-18T05:27:15.000Z,26NA20200116,-18.715,58.261,,2021.0N,2,,9.566,9.91,1016.68,1010.4,35.297,1021.3,854.0,583.0,,431.3,,,418.9,,417.2,417.282,4,2,9,9,9
2020-01-18T05:28:48.000Z,26NA20200116,-18.703,58.26,,2021.0N,2,,9.57,9.9,1016.75,1010.7,35.297,1021.3,845.0,583.0,,431.6,,,419.5,,417.9,417.879,4,2,9,9,9
2020-01-18T05:30:20.000Z,26NA20200116,-18.685,58.26,,2021.0N,2,,9.579,9.9,1016.57,1010.9,35.297,1021.3,832.0,583.0,,431.5,,,419.7,,418.1,418.078,4,2,9,9,9
2020-01-18T05:31:53.000Z,26NA20200116,-18.675,58.259,,2021.0N,2,,9.578,9.91,1016.91,1010.6,35.297,1021.3,828.0,583.0,,431.7,,,419.6,,418.0,417.979,4,2,9,9,9
2020-01-18T05:33:26.000Z,26NA20200116,-18.663,58.259,,2021.0N,2,,9.57,9.91,1016.71,1010.7,35.297,1021.3,824.0,583.0,,431.6,,,419.4,,417.7,417.78,4,2,9,9,9
2020-01-18T05:34:59.000Z,26NA20200116,-18.648,58.258,,2021.0N,2,,9.578,9.91,1016.87,1010.4,35.297,1021.3,819.0,584.0,,432.1,,,419.8,,418.2,418.179,4,2,9,9,9
2020-01-18T05:36:32.000Z,26NA20200116,-18.64,58.258,,2021.0N,2,,9.58,9.92,1016.77,1010.1,35.297,1021.3,814.0,584.0,,431.9,,,419.3,,417.7,417.681,4,2,9,9,9
2020-01-18T05:38:05.000Z,26NA20200116,-18.627,58.257,,2021.0N,2,,9.577,9.91,1016.66,1010.4,35.297,1021.3,805.0,584.0,,432.0,,,419.8,,418.1,418.179,4,2,9,9,9
2020-01-18T05:39:37.000Z,26NA20200116,-18.615,58.257,,2021.0N,2,,9.575,9.92,1016.82,1010.6,35.297,1021.3,798.0,584.0,,432.2,,,419.8,,418.2,418.178,4,2,9,9,9
2020-01-18T05:41:10.000Z,26NA20200116,-18.603,58.256,,2021.0N,2,,9.55,9.91,1016.87,1010.7,35.297,1021.3,794.0,584.0,,432.2,,,419.6,,418.0,417.978,4,2,9,9,9
2020-01-18T05:42:43.000Z,26NA20200116,-18.599,58.256,,2021.0N,2,,9.548,9.89,1016.88,1011.0,35.297,1021.3,793.0,584.0,,432.1,,,420.0,,418.3,418.376,4,2,9,9,9
2020-01-18T05:44:16.000Z,26NA20200116,-18.575,58.255,,2021.0N,2,,9.543,9.89,1016.53,1010.9,35.297,1021.3,785.0,584.0,,432.2,,,419.9,,418.3,418.277,4,2,9,9,9
2020-01-18T05:45:49.000Z,26NA20200116,-18.563,58.255,,2021.0N,2,,9.533,9.88,1016.93,1010.1,35.297,1021.3,783.0,584.0,,432.1,,,419.5,,417.9,417.879,4,2,9,9,9
2020-01-18T05:47:21.000Z,26NA20200116,-18.558,58.255,,2021.0N,2,,9.541,9.88,1016.97,1011.3,35.297,1021.3,782.0,584.0,,432.4,,,420.4,,418.8,418.774,4,2,9,9,9
2020-01-18T05:49:15.000Z,26NA20200116,-18.534,58.254,,2021.0N,2,,9.516,9.87,1016.8,1011.3,35.297,1021.3,778.0,584.0,,432.2,,,419.9,,418.3,418.276,4,2,9,9,9
2020-01-18T05:50:48.000Z,26NA20200116,-18.523,58.254,,2021.0N,2,,9.512,9.86,1016.84,1010.5,35.297,1021.3,777.0,584.0,,432.3,,,419.8,,418.2,418.177,4,2,9,9,9
2020-01-18T05:52:21.000Z,26NA20200116,-18.51,58.253,,2021.0N,2,,9.458,9.85,1016.91,1011.5,35.297,1021.3,774.0,584.0,,432.2,,,419.3,,417.7,417.676,4,2,9,9,9
2020-01-18T05:53:54.000Z,26NA20200116,-18.486,58.252,,2021.0N,2,,9.46,9.8,1017.22,1009.8,35.297,1021.3,769.0,584.0,,432.3,,,419.7,,418.1,418.078,4,2,9,9,9
2020-01-18T05:55:27.000Z,26NA20200116,-18.486,58.252,,2021.0N,2,,9.478,9.81,1016.91,1010.8,35.297,1021.3,769.0,584.0,,432.2,,,420.2,,418.5,418.574,4,2,9,9,9
2020-01-18T05:56:59.000Z,26NA20200116,-18.474,58.252,,2021.0N,2,,9.502,9.81,1017.31,1010.9,35.297,1021.3,770.0,584.0,,432.3,,,420.7,,419.1,419.073,4,2,9,9,9
2020-01-18T06:42:34.000Z,26NA20200116,-18.105,58.239,,2021.0N,2,,9.441,9.76,1017.69,1012.8,35.297,1024.5,799.0,586.0,,428.4,,,417.5,,415.9,415.881,4,2,9,9,9
2020-01-18T06:44:07.000Z,26NA20200116,-18.078,58.238,,2021.0N,2,,9.452,9.78,1017.87,1012.8,35.297,1024.5,799.0,586.0,,428.8,,,417.8,,416.1,416.18,4,2,9,9,9
2020-01-18T06:45:40.000Z,26NA20200116,-18.078,58.238,,2021.0N,2,,9.461,9.78,1017.8,1012.3,35.297,1024.5,799.0,586.0,,429.3,,,418.2,,416.6,416.579,4,2,9,9,9
2020-01-18T06:47:12.000Z,26NA20200116,-18.061,58.238,,2021.0N,2,,9.476,9.8,1017.69,1012.8,35.297,1024.5,796.0,586.0,,429.4,,,418.4,,416.7,416.778,4,2,9,9,9
2020-01-18T06:49:06.000Z,26NA20200116,-18.052,58.237,,2021.0N,2,,9.479,9.81,1017.74,1012.5,35.297,1024.5,795.0,587.0,,429.6,,,418.4,,416.8,416.779,4,2,9,9,9
2020-01-18T06:50:39.000Z,26NA20200116,-18.024,58.236,,2021.0N,2,,9.477,9.81,1017.82,1011.9,35.297,1024.5,794.0,587.0,,430.0,,,418.5,,416.8,416.879,4,2,9,9,9
2020-01-18T06:52:12.000Z,26NA20200116,-18.019,58.236,,2021.0N,2,,9.476,9.81,1018.07,1012.7,35.297,1024.5,794.0,587.0,,430.4,,,419.2,,417.6,417.575,4,2,9,9,9
2020-01-18T06:53:45.000Z,26NA20200116,-18.002,58.236,,2021.0N,2,,9.486,9.81,1017.88,1012.9,35.297,1024.5,803.0,587.0,,430.5,,,419.5,,417.9,417.874,4,2,9,9,9
2020-01-18T06:55:17.000Z,26NA20200116,-18.002,58.236,,2021.0N,2,,9.463,9.81,1017.89,1012.6,35.297,1024.5,803.0,587.0,,430.7,,,419.2,,417.6,417.575,4,2,9,9,9
2020-01-18T06:56:50.000Z,26NA20200116,-17.985,58.235,,2021.0N,2,,9.441,9.79,1018.05,1012.1,35.317,1024.5,813.0,587.0,,431.0,,,419.2,,417.6,417.575,4,2,9,9,9
2020-01-18T06:58:23.000Z,26NA20200116,-17.973,58.234,,2021.0N,2,,9.435,9.78,1018.06,1012.5,35.317,1024.5,816.0,587.0,,430.9,,,419.4,,417.8,417.774,4,2,9,9,9
2020-01-18T06:59:56.000Z,26NA20200116,-17.957,58.234,,2021.0N,2,,9.426,9.77,1017.85,1012.4,35.317,1024.5,821.0,587.0,,431.1,,,419.5,,417.9,417.874,4,2,9,9,9
2020-01-18T07:01:29.000Z,26NA20200116,-17.949,58.234,,2021.0N,2,,9.422,9.77,1018.13,1012.4,35.317,1024.5,823.0,587.0,,431.2,,,419.5,,417.9,417.873,4,2,9,9,9
2020-01-18T07:03:02.000Z,26NA20200116,-17.923,58.233,,2021.0N,2,,9.43,9.76,1018.39,1012.0,35.317,1024.5,835.0,587.0,,431.3,,,419.8,,418.2,418.173,4,2,9,9,9
2020-01-18T07:04:34.000Z,26NA20200116,-17.923,58.233,,2021.0N,2,,9.439,9.76,1017.93,1011.7,35.317,1024.5,835.0,587.0,,431.4,,,419.9,,418.3,418.273,4,2,9,9,9
2020-01-18T07:06:07.000Z,26NA20200116,-17.904,58.232,,2021.0N,2,,9.438,9.77,1017.91,1011.6,35.317,1024.5,854.0,587.0,,431.5,,,419.8,,418.2,418.174,4,2,9,9,9
2020-01-18T07:07:40.000Z,26NA20200116,-17.894,58.232,,2021.0N,2,,9.437,9.78,1017.9,1012.0,35.317,1024.5,867.0,588.0,,431.6,,,419.8,,418.2,418.173,4,2,9,9,9
2020-01-18T07:09:13.000Z,26NA20200116,-17.886,58.232,,2021.0N,2,,9.432,9.77,1017.85,1012.0,35.317,1024.5,878.0,588.0,,431.5,,,419.9,,418.3,418.273,4,2,9,9,9
2020-01-18T07:10:46.000Z,26NA20200116,-17.861,58.231,,2021.0N,2,,9.418,9.76,1017.81,1012.3,35.317,1024.5,877.0,588.0,,431.9,,,420.4,,418.7,418.77,4,2,9,9,9
2020-01-18T07:12:19.000Z,26NA20200116,-17.854,58.231,,2021.0N,2,,9.367,9.74,1017.71,1011.8,35.317,1024.5,875.0,588.0,,431.7,,,419.4,,417.8,417.774,4,2,9,9,9
2020-01-18T07:13:51.000Z,26NA20200116,-17.845,58.231,,2021.0N,2,,9.341,9.71,1018.05,1011.8,35.317,1024.5,873.0,588.0,,432.0,,,419.8,,418.1,418.172,4,2,9,9,9
2020-01-18T07:15:24.000Z,26NA20200116,-17.826,58.23,,2021.0N,2,,9.282,9.68,1017.77,1012.6,35.317,1024.5,870.0,588.0,,432.0,,,419.6,,418.0,417.97,4,2,9,9,9
2020-01-18T07:16:57.000Z,26NA20200116,-17.818,58.23,,2021.0N,2,,9.276,9.63,1017.94,1012.5,35.317,1024.5,869.0,588.0,,432.0,,,420.3,,418.7,418.667,4,2,9,9,9
2020-01-18T07:18:30.000Z,26NA20200116,-17.797,58.229,,2021.0N,2,,9.263,9.62,1018.12,1012.3,35.317,1024.5,871.0,588.0,,432.3,,,420.5,,418.9,418.866,4,2,9,9,9
2020-01-18T07:20:03.000Z,26NA20200116,-17.79,58.229,,2021.0N,2,,9.261,9.6,1017.97,1011.8,35.317,1024.5,872.0,588.0,,432.1,,,420.4,,418.8,418.768,4,2,9,9,9
2020-01-18T07:21:36.000Z,26NA20200116,-17.786,58.228,,2021.0N,2,,9.265,9.6,1018.22,1012.0,35.317,1024.5,873.0,588.0,,432.5,,,420.9,,419.3,419.265,4,2,9,9,9
2020-01-18T07:23:08.000Z,26NA20200116,-17.772,58.228,,2021.0N,2,,9.266,9.6,1018.07,1012.0,35.317,1024.5,875.0,588.0,,432.2,,,420.7,,419.1,419.066,4,2,9,9,9
2020-01-18T07:24:41.000Z,26NA20200116,-17.748,58.227,,2021.0N,2,,9.266,9.6,1018.07,1012.1,35.317,1024.5,879.0,589.0,,432.6,,,421.1,,419.4,419.464,4,2,9,9,9
2020-01-18T07:26:15.000Z,26NA20200116,-17.738,58.227,,2021.0N,2,,9.257,9.6,1018.03,1011.8,35.317,1024.5,882.0,589.0,,432.4,,,420.7,,419.0,419.066,4,2,9,9,9
2020-01-18T07:27:48.000Z,26NA20200116,-17.726,58.226,,2021.0N,2,,9.258,9.59,1018.09,1010.6,35.317,1024.5,886.0,589.0,,432.6,,,420.6,,418.9,418.969,4,2,9,9,9
2020-01-18T07:29:21.000Z,26NA20200116,-17.712,58.226,,2021.0N,2,,9.253,9.59,1018.11,1012.0,35.317,1024.5,890.0,589.0,,432.7,,,421.2,,419.5,419.564,4,2,9,9,9
2020-01-18T07:30:55.000Z,26NA20200116,-17.709,58.226,,2021.0N,2,,9.247,9.59,1018.24,1011.9,35.317,1024.5,891.0,589.0,,432.5,,,420.8,,419.2,419.166,4,2,9,9,9
2020-01-18T07:32:27.000Z,26NA20200116,-17.685,58.225,,2021.0N,2,,9.239,9.59,1018.3,1011.1,35.317,1024.5,899.0,589.0,,432.8,,,420.6,,419.0,418.967,4,2,9,9,9
2020-01-18T07:34:00.000Z,26NA20200116,-17.685,58.225,,2021.0N,2,,9.228,9.58,1018.2,1011.7,35.317,1024.5,899.0,589.0,,432.7,,,420.8,,419.1,419.165,4,2,9,9,9
2020-01-18T07:35:32.000Z,26NA20200116,-17.669,58.224,,2021.0N,2,,9.233,9.57,1018.3,1011.4,35.317,1024.5,899.0,589.0,,432.8,,,420.9,,419.3,419.266,4,2,9,9,9
2020-01-18T07:37:06.000Z,26NA20200116,-17.652,58.224,,2021.0N,2,,9.231,9.58,1018.2,1011.5,35.317,1024.5,899.0,590.0,,432.9,,,420.9,,419.3,419.265,4,2,9,9,9
2020-01-18T07:38:39.000Z,26NA20200116,-17.644,58.223,,2021.0N,2,,9.228,9.57,1018.23,1011.6,35.317,1024.5,902.0,590.0,,432.8,,,421.0,,419.3,419.365,4,2,9,9,9
2020-01-18T07:40:12.000Z,26NA20200116,-17.627,58.223,,2021.0N,2,,9.228,9.57,1018.52,1011.4,35.317,1024.5,907.0,590.0,,432.8,,,420.8,,419.2,419.166,4,2,9,9,9
2020-01-18T07:41:45.000Z,26NA20200116,-17.627,58.223,,2021.0N,2,,9.226,9.57,1018.35,1011.8,35.317,1024.5,907.0,590.0,,432.7,,,420.9,,419.3,419.265,4,2,9,9,9
2020-01-18T07:43:18.000Z,26NA20200116,-17.603,58.222,,2021.0N,2,,9.214,9.57,1018.15,1012.2,35.317,1024.5,917.0,590.0,,432.7,,,420.9,,419.2,419.264,4,2,9,9,9
2020-01-18T07:44:51.000Z,26NA20200116,-17.6,58.222,,2021.0N,2,,9.212,9.56,1018.61,1011.8,35.317,1024.5,918.0,590.0,,432.7,,,420.9,,419.2,419.265,4,2,9,9,9
2020-01-18T07:46:23.000Z,26NA20200116,-17.579,58.22,,2021.0N,2,,9.213,9.56,1018.59,1011.1,35.317,1024.5,929.0,590.0,,432.6,,,420.5,,418.8,418.867,4,2,9,9,9
2020-01-18T07:47:56.000Z,26NA20200116,-17.571,58.22,,2021.0N,2,,9.212,9.56,1018.23,1012.3,35.317,1024.5,936.0,590.0,,432.7,,,421.1,,419.5,419.463,4,2,9,9,9
2020-01-18T07:49:50.000Z,26NA20200116,-17.558,58.22,,2021.0N,2,,9.218,9.55,1018.55,1011.6,35.317,1024.5,946.0,590.0,,432.6,,,421.0,,419.4,419.365,4,2,9,9,9
2020-01-18T07:51:23.000Z,26NA20200116,-17.54,58.219,,2021.0N,2,,9.211,9.56,1018.42,1011.4,35.317,1024.5,963.0,591.0,,432.6,,,420.6,,419.0,418.966,4,2,9,9,9
2020-01-18T07:52:56.000Z,26NA20200116,-17.516,58.218,,2021.0N,2,,9.21,9.55,1018.76,1011.3,35.317,1024.5,986.0,591.0,,432.4,,,420.5,,418.9,418.867,4,2,9,9,9
2020-01-18T07:54:29.000Z,26NA20200116,-17.516,58.218,,2021.0N,2,,9.207,9.55,1018.65,1011.6,35.317,1024.5,986.0,591.0,,432.6,,,420.8,,419.1,419.165,4,2,9,9,9
2020-01-18T07:56:02.000Z,26NA20200116,-17.502,58.217,,2021.0N,2,,9.209,9.55,1018.76,1011.2,35.317,1024.5,1005.0,591.0,,432.5,,,420.5,,418.8,418.867,4,2,9,9,9
2020-01-18T07:57:34.000Z,26NA20200116,-17.498,58.217,,2021.0N,2,,9.21,9.55,1018.82,1011.1,35.317,1024.5,1010.0,591.0,,432.6,,,420.6,,419.0,418.967,4,2,9,9,9
2020-01-18T07:59:07.000Z,26NA20200116,-17.479,58.216,,2021.0N,2,,9.215,9.55,1018.76,1011.4,35.317,1024.5,1030.0,591.0,,432.3,,,420.5,,418.9,418.867,4,2,9,9,9